Location: Asheville, NC
(35.6000°N, 82.5500°W)
Time: 16:58:32
(UTC-04:00)

Vanguard 1 - Pass Details

Date: 14 February 2018
Orbit: 650 x 3833 km, 34.3° (Epoch: 19 June)

Event Time Altitude Azimuth Distance (km) Brightness Sun altitude
Rises 23:42:42 0° 261° (W) 2,990 - -63.2°
Reaches altitude 10° 23:46:32 10° 226° (SW) 2,266 - -63.6°
Maximum altitude 23:48:14 12° 206° (SSW) 2,286 - -63.8°
Drops below altitude 10° 23:50:07 10° 187° (S) 2,561 - -64.0°
Sets 23:55:26 0° 156° (SSE) 4,093 - -64.6°
